Regional Weather Roundup
Issued by NWS

Home | Current Version | Previous Version | Text Only | Print | Product List | Glossary On
Versions: 1 2 3 4 5 6 7 8 9 10 11 12 13 14 15 16 17 18 19 20 21 22 23 24 25 26 27 28 29 30 31 32 33 34 35 36 37 38 39 40 41 42 43 44 45 46 47 48 49 50
000
ASUS43 KLSX 261010
RWRMO

WEATHER SUMMARY FOR MISSOURI
NATIONAL WEATHER SERVICE SPRINGFIELD MO
500 AM CDT TUE JUL 26 2016

NOTE: "FAIR" INDICATES FEW OR NO CLOUDS BELOW 12,000 FEET WITH NO
       SIGNIFICANT WEATHER AND/OR OBSTRUCTIONS TO VISIBILITY.
       CURRENT SKY AND/OR WEATHER CONDITIONS ARE NOT AVAILABLE FOR
       CHILLICOTHE AND FARMINGTON.

MOZ001>031-035>038-043-044-053-054-261100-
...NORTHERN AND WESTERN MISSOURI...

CITY           SKY/WX    TMP DP  RH WIND       PRES   REMARKS
KANSAS CTY INT CLEAR     70  67  90 NE5       30.06R
KANSAS C DTWN  CLEAR     73  67  81 NE5       30.04S
LEE`S SUMMIT   PTCLDY    70  68  93 NE5       30.06R
ST JOSEPH      CLEAR     65  64  97 N5        30.06R
CHILLICOTHE      N/A     68  66  93 CALM      30.07R
KIRKSVILLE     CLEAR     63  62  97 N3        30.07S FOG

$$
MOZ066>068-077>081-088>096-101>105-261100-
...SOUTHWEST MISSOURI...

CITY           SKY/WX    TMP DP  RH WIND       PRES   REMARKS
SPRINGFIELD    CLOUDY    74  71  91 E5        30.02S
JOPLIN         PTCLDY    74  72  93 E5        30.00F
BRANSON        CLOUDY    72  72 100 CALM      30.03S

$$
MOZ032>034-039>042-045>050-055>058-069>072-261100-
...CENTRAL MISSOURI...

CITY           SKY/WX    TMP DP  RH WIND       PRES   REMARKS
COLUMBIA       CLEAR     71  69  93 NE7       30.04S
JEFFERSON CITY CLEAR     70  69  97 W3        30.02S
ROLLA          CLEAR     70  69  97 NE5       30.02S
SEDALIA        CLOUDY    72  70  93 NE3       30.05S
WHITEMAN AFB   CLOUDY    72  72 100 NE2       30.03S
OSAGE BEACH    CLOUDY    71  70  96 NE5       30.04R

$$
MOZ051-052-059>065-261100-
...EAST CENTRAL MISSOURI...

CITY           SKY/WX    TMP DP  RH WIND       PRES   REMARKS
ST LOUIS INTL  CLOUDY    78  73  84 NW6       30.02R
SPIRIT OF STL  CLOUDY    77  73  87 N5        30.01R
ST CHARLES     CLOUDY    76  74  93 N5        30.01R

$$
MOZ072>076-082>087-097>100-106>115-261100-
...SOUTH CENTRAL AND SOUTHEAST MISSOURI...

CITY           SKY/WX    TMP DP  RH WIND       PRES   REMARKS
CAPE GIRARDEAU CLEAR     74  73  97 S3        29.99S FOG
FARMINGTON     MOCLDY    74  71  91 CALM      30.03S
POPLAR BLUFF   CLOUDY    76  75  97 CALM      29.99S FOG
WEST PLAINS    CLOUDY    74  71  91 CALM      30.04F

$$




USA.gov is the U.S. government's official web portal to all federal, state and local government web resources and services.